When you browse on this site, cookies collect data to enhance your experience and personalize the content and advertising you see.
Visit our Privacy Policy to learn more. By continuing to use the site, you agree to this use of cookies and data.
  • în România
  • Lista ţărilor
  • Pe 7 zile
  • Temperatura apei
  • Meteo pe hartă
  • Widget-uri
  • user-avatar
    Intrare

    Meteo pe oră la Tamale

    Astăzi, 7 Decembrie, Sâmbătă

    Timp Temperatura Precipitaţii Vânt Presiune Umiditate
    00:00 +29°C° 0 mm 1 m/s 741 mmHg 38%
    01:00 +28°C° 0 mm 1 m/s 741 mmHg 38%
    02:00 +28°C° 0 mm 1 m/s 741 mmHg 38%
    03:00 +28°C° 0 mm 1 m/s 741 mmHg 38%
    04:00 +27°C° 0 mm 1 m/s 741 mmHg 38%
    05:00 +27°C° 0 mm 1 m/s 741 mmHg 38%
    06:00 +26°C° 0 mm 1 m/s 741 mmHg 38%
    07:00 +29°C° 0 mm 1 m/s 742 mmHg 34%
    08:00 +30°C° 0 mm 0 m/s 742 mmHg 29%
    09:00 +32°C° 0 mm 0 m/s 743 mmHg 25%
    10:00 +36°C° 0 mm 1 m/s 742 mmHg 23%
    11:00 +39°C° 0 mm 1 m/s 741 mmHg 20%
    12:00 +40°C° 0 mm 1 m/s 740 mmHg 18%
    13:00 +40°C° 0 mm 1 m/s 740 mmHg 18%
    14:00 +41°C° 0 mm 1 m/s 739 mmHg 17%
    15:00 +41°C° 0 mm 2 m/s 739 mmHg 17%
    16:00 +39°C° 0 mm 1 m/s 739 mmHg 19%
    17:00 +36°C° 0 mm 1 m/s 739 mmHg 21%
    18:00 +31°C° 0 mm 0 m/s 739 mmHg 24%
    19:00 +31°C° 0 mm 0 m/s 740 mmHg 25%
    20:00 +32°C° 0 mm 1 m/s 740 mmHg 26%
    21:00 +31°C° 0 mm 1 m/s 741 mmHg 28%
    22:00 +28°C° 0 mm 0 m/s 741 mmHg 29%
    23:00 +28°C° 0 mm 0 m/s 741 mmHg 30%

    Mâine, 8 Decembrie, Duminică

    Timp Temperatura Precipitaţii Vânt Presiune Umiditate
    00:00 +27°C° 0 mm 0 m/s 741 mmHg 31%
    01:00 +26°C° 0 mm 0 m/s 741 mmHg 32%
    02:00 +26°C° 0 mm 0 m/s 741 mmHg 33%
    03:00 +27°C° 0 mm 1 m/s 741 mmHg 34%
    04:00 +27°C° 0 mm 1 m/s 741 mmHg 38%
    05:00 +26°C° 0 mm 1 m/s 741 mmHg 42%
    06:00 +26°C° 0 mm 1 m/s 742 mmHg 46%
    07:00 +28°C° 0 mm 1 m/s 742 mmHg 45%
    08:00 +31°C° 0 mm 1 m/s 742 mmHg 44%
    09:00 +33°C° 0 mm 1 m/s 743 mmHg 43%
    10:00 +36°C° 0 mm 1 m/s 742 mmHg 36%
    11:00 +36°C° 0 mm 0 m/s 742 mmHg 28%
    12:00 +39°C° 0 mm 0 m/s 741 mmHg 21%
    13:00 +38°C° 0 mm 0 m/s 741 mmHg 20%
    14:00 +41°C° 0 mm 1 m/s 740 mmHg 18%
    15:00 +41°C° 0 mm 1 m/s 739 mmHg 17%
    16:00 +37°C° 0 mm 1 m/s 739 mmHg 18%
    17:00 +35°C° 0 mm 1 m/s 739 mmHg 20%
    18:00 +33°C° 0 mm 1 m/s 739 mmHg 21%
    19:00 +32°C° 0 mm 1 m/s 740 mmHg 21%
    20:00 +32°C° 0 mm 1 m/s 740 mmHg 22%
    21:00 +31°C° 0 mm 1 m/s 741 mmHg 22%
    22:00 +30°C° 0 mm 1 m/s 741 mmHg 23%
    23:00 +27°C° 0 mm 0 m/s 741 mmHg 25%

    Poimâine, 9 Decembrie, Luni

    Timp Temperatura Precipitaţii Vânt Presiune Umiditate
    00:00 +26°C° 0 mm 0 m/s 741 mmHg 26%
    01:00 +26°C° 0 mm 0 m/s 741 mmHg 33%
    02:00 +27°C° 0 mm 1 m/s 741 mmHg 39%
    03:00 +27°C° 0 mm 1 m/s 741 mmHg 45%
    04:00 +26°C° 0 mm 1 m/s 741 mmHg 53%
    05:00 +24°C° 0 mm 0 m/s 741 mmHg 60%
    06:00 +24°C° 0 mm 0 m/s 742 mmHg 67%
    07:00 +28°C° 0 mm 1 m/s 742 mmHg 64%
    08:00 +29°C° 0 mm 1 m/s 743 mmHg 61%
    09:00 +31°C° 0 mm 2 m/s 743 mmHg 57%
    10:00 +34°C° 0 mm 1 m/s 743 mmHg 47%
    11:00 +37°C° 0 mm 1 m/s 742 mmHg 36%
    12:00 +38°C° 0 mm 0 m/s 742 mmHg 26%
    13:00 +38°C° 0 mm 0 m/s 741 mmHg 25%
    14:00 +38°C° 0 mm 0 m/s 740 mmHg 23%
    15:00 +38°C° 0 mm 0 m/s 739 mmHg 22%
    16:00 +36°C° 0 mm 0 m/s 739 mmHg 24%
    17:00 +36°C° 0 mm 1 m/s 739 mmHg 27%
    18:00 +34°C° 0 mm 1 m/s 740 mmHg 29%
    19:00 +33°C° 0 mm 1 m/s 740 mmHg 30%
    20:00 +32°C° 0 mm 1 m/s 741 mmHg 31%
    21:00 +31°C° 0 mm 1 m/s 741 mmHg 32%
    22:00 +30°C° 0 mm 1 m/s 741 mmHg 35%
    23:00 +30°C° 0 mm 1 m/s 741 mmHg 38%

    10 Decembrie, Marţi

    Timp Temperatura Precipitaţii Vânt Presiune Umiditate
    00:00 +29°C° 0 mm 1 m/s 741 mmHg 41%
    01:00 +28°C° 0 mm 1 m/s 741 mmHg 46%
    02:00 +28°C° 0 mm 1 m/s 741 mmHg 51%
    03:00 +27°C° 0 mm 1 m/s 740 mmHg 56%
    04:00 +27°C° 0 mm 1 m/s 741 mmHg 61%
    05:00 +26°C° 0 mm 1 m/s 741 mmHg 66%
    06:00 +26°C° 0 mm 1 m/s 741 mmHg 71%
    07:00 +28°C° 0 mm 1 m/s 742 mmHg 66%
    08:00 +30°C° 0 mm 1 m/s 742 mmHg 61%
    09:00 +32°C° 0 mm 2 m/s 743 mmHg 56%
    10:00 +35°C° 0 mm 1 m/s 742 mmHg 44%
    11:00 +39°C° 0 mm 1 m/s 742 mmHg 33%
    12:00 +39°C° 0 mm 0 m/s 742 mmHg 21%
    13:00 +41°C° 0 mm 1 m/s 741 mmHg 19%
    14:00 +41°C° 0 mm 1 m/s 740 mmHg 17%
    15:00 +41°C° 0 mm 1 m/s 739 mmHg 15%
    16:00 +39°C° 0 mm 1 m/s 739 mmHg 15%
    17:00 +35°C° 0 mm 1 m/s 739 mmHg 16%
    18:00 +33°C° 0 mm 1 m/s 739 mmHg 17%
    19:00 +32°C° 0 mm 1 m/s 740 mmHg 17%
    20:00 +31°C° 0 mm 1 m/s 740 mmHg 18%
    21:00 +30°C° 0 mm 1 m/s 741 mmHg 18%
    22:00 +29°C° 0 mm 1 m/s 741 mmHg 20%
    23:00 +29°C° 0 mm 1 m/s 741 mmHg 21%

    11 Decembrie, Miercuri

    Timp Temperatura Precipitaţii Vânt Presiune Umiditate
    00:00 +26°C° 0 mm 0 m/s 741 mmHg 22%
    01:00 +25°C° 0 mm 0 m/s 741 mmHg 26%
    02:00 +27°C° 0 mm 1 m/s 740 mmHg 30%
    03:00 +26°C° 0 mm 1 m/s 740 mmHg 34%
    04:00 +26°C° 0 mm 1 m/s 741 mmHg 44%
    05:00 +25°C° 0 mm 1 m/s 741 mmHg 55%
    06:00 +25°C° 0 mm 1 m/s 741 mmHg 65%
    07:00 +27°C° 0 mm 1 m/s 742 mmHg 62%
    08:00 +29°C° 0 mm 1 m/s 742 mmHg 59%
    09:00 +32°C° 0 mm 1 m/s 743 mmHg 56%
    10:00 +35°C° 0 mm 1 m/s 742 mmHg 45%
    11:00 +37°C° 0 mm 1 m/s 742 mmHg 33%
    12:00 +38°C° 0 mm 0 m/s 741 mmHg 22%
    13:00 +41°C° 0 mm 1 m/s 740 mmHg 20%
    14:00 +41°C° 0 mm 1 m/s 740 mmHg 19%
    15:00 +40°C° 0 mm 1 m/s 739 mmHg 17%
    16:00 +37°C° 0 mm 1 m/s 739 mmHg 19%
    17:00 +35°C° 0 mm 1 m/s 739 mmHg 21%
    18:00 +33°C° 0 mm 1 m/s 739 mmHg 22%
    19:00 +32°C° 0 mm 1 m/s 739 mmHg 23%
    20:00 +32°C° 0 mm 1 m/s 740 mmHg 24%
    21:00 +31°C° 0 mm 1 m/s 740 mmHg 24%
    22:00 +30°C° 0 mm 1 m/s 741 mmHg 25%
    23:00 +27°C° 0 mm 0 m/s 741 mmHg 26%

    12 Decembrie, Joi

    Timp Temperatura Precipitaţii Vânt Presiune Umiditate
    00:00 +26°C° 0 mm 0 m/s 741 mmHg 28%
    01:00 +25°C° 0 mm 0 m/s 740 mmHg 31%
    02:00 +25°C° 0 mm 0 m/s 740 mmHg 35%
    03:00 +24°C° 0 mm 0 m/s 740 mmHg 39%
    04:00 +24°C° 0 mm 0 m/s 740 mmHg 46%
    05:00 +23°C° 0 mm 0 m/s 741 mmHg 53%
    06:00 +23°C° 0 mm 0 m/s 741 mmHg 60%
    07:00 +27°C° 0 mm 1 m/s 742 mmHg 58%
    08:00 +30°C° 0 mm 1 m/s 742 mmHg 56%
    09:00 +32°C° 0 mm 1 m/s 743 mmHg 54%
    10:00 +35°C° 0 mm 1 m/s 742 mmHg 44%
    11:00 +37°C° 0 mm 1 m/s 742 mmHg 33%
    12:00 +38°C° 0 mm 0 m/s 741 mmHg 22%
    13:00 +41°C° 0 mm 1 m/s 740 mmHg 21%
    14:00 +40°C° 0 mm 1 m/s 740 mmHg 19%
    15:00 +40°C° 0 mm 1 m/s 739 mmHg 17%
    16:00 +37°C° 0 mm 1 m/s 739 mmHg 18%
    17:00 +35°C° 0 mm 1 m/s 739 mmHg 20%
    18:00 +33°C° 0 mm 1 m/s 739 mmHg 21%
    19:00 +33°C° 0 mm 1 m/s 740 mmHg 21%
    20:00 +32°C° 0 mm 1 m/s 741 mmHg 21%
    21:00 +31°C° 0 mm 1 m/s 741 mmHg 22%
    22:00 +30°C° 0 mm 1 m/s 741 mmHg 24%
    23:00 +29°C° 0 mm 1 m/s 741 mmHg 27%
    Arată mai mult